OneWeb SL0228

operational
NORAD ID: 48780 Int'l Des: 2021-045 Owner: ONEWEBN Country: UK Constellation: oneweb
LEOCIRCULARPOLARONEWEB_TYPE

OneWeb SL0228について

説明を読み込み中...

リアルタイム位置

3D地球を読み込み中...

次回通過

高度履歴

Altitude vs Time

uPlot chart will show altitude changes over time

軌道要素

1 48780U 21045P 25258.60424714 .00000088 00000-0 19927-3 0 9996
2 48780 87.9032 313.9559 0001732 96.5420 263.5908 13.15550535208222
Epoch: Sep 15, 2025 • Age: 14 hours

現在のステータス

高度 1203.8 km
速度 7.25 km/s
衛星直下点 21.18°N, 76.41°E
打ち上げ日 May 28, 2021
運用期間 4.3 years
タイプ internet

技術仕様

分類 Payload
質量 148.00 kg
乾燥質量 140.00 kg
総質量 148.00 kg
長さ 1.30 m
直径 1.00 m
スパン 5.00 m
形状 Trapezoid+2 pan
製造者 ONEWUS
バスタイプ ARROW
フェーズステータス In Orbit
所有者/国 ONEWEBN/UK

大規模コンステレーション

Loading constellations...